QPF
0.00 0.00 0.00 0.00 0.00 0.00 0.00 0.00 0.00 0.00 0.00 0.00 0.00 0.00 0.00 0.00 0.01 0.00 0.00 0.01 0.00 0.00 0.00 0.00 0.01 0.01 0.00 0.03 0.04 0.03 0.00 0.00 0.01 0.00 0.00 0.02 0.03 0.10 0.02 0.01 0.04 0.00 0.01
0.00 0.00 0.00 0.00 0.00 0.00 0.00 0.00 0.00 0.00 0.00 0.00 0.01 0.05 0.03 0.01 0.03 0.01 0.01 0.01 0.01 0.00 0.00 0.00 0.01 0.00 0.02 0.09 0.05 0.04 0.00 0.00 0.01 0.00 0.00 0.00 0.01 0.05 0.02 0.01 0.01 0.08 0.01
0.00 0.00 0.00 0.00 0.00 0.00 0.00 0.00 0.00 0.00 0.00 0.00 0.00 0.03 0.01 0.02 0.03 0.00 0.01 0.00 0.00 0.00 0.00 0.00 0.00 0.00 0.01 0.00 0.01 0.03 0.00 0.02 0.00 0.02 0.00 0.00 0.00 0.00 0.00 0.00 0.04 0.06 0.00
0.00 0.00 0.00 0.00 0.00 0.00 0.00 0.00 0.00 0.00 0.00 0.00 0.00 0.02 0.00 0.00 0.00 0.00 0.00 0.00 0.00 0.00 0.00 0.00 0.01 0.02 0.01 0.00 0.00 0.01 0.01 0.00 0.00 0.08 0.02 0.00 0.00 0.00 0.00 0.00 0.00 0.01 0.00
0.00 0.00 0.00 0.00 0.00 0.00 0.00 0.00 0.00 0.00 0.00 0.00 0.00 0.00 0.00 0.00 0.00 0.00 0.00 0.00 0.00 0.00 0.00 0.00 0.00 0.00 0.01 0.01 0.04 0.01 0.00 0.00 0.00 0.02 0.02 0.00 0.00 0.00 0.00 0.00 0.00 0.00 0.00
0.00 0.00 0.00 0.00 0.00 0.00 0.00 0.00 0.00 0.00 0.00 0.00 0.00 0.00 0.00 0.00 0.00 0.00 0.00 0.00 0.00 0.00 0.00 0.00 0.00 0.00 0.01 0.00 0.00 0.01 0.00 0.00 0.00 0.02 0.01 0.02 0.05 0.03 0.02 0.04 0.02 0.00 0.00
0.00 0.00 0.00 0.00 0.00 0.00 0.00 0.00 0.00 0.00 0.00 0.00 0.00 0.00 0.00 0.00 0.01 0.00 0.00 0.00 0.00 0.00 0.00 0.00 0.00 0.00 0.00 0.00 0.00 0.00 0.00 0.00 0.00 0.01 0.00 0.01 0.01 0.06 0.02 0.01 0.00 0.00 0.00
0.00 0.00 0.00 0.00 0.00 0.00 0.00 0.00 0.00 0.00 0.00 0.00 0.00 0.00 0.00 0.00 0.00 0.00 0.01 0.00 0.00 0.00 0.00 0.00 0.00 0.00 0.00 0.00 0.00 0.00 0.00 0.00 0.00 0.00 0.00 0.00 0.01 0.02 0.03 0.00 0.03 0.01 0.01
0.00 0.00 0.00 0.00 0.00 0.00 0.00 0.00 0.00 0.00 0.00 0.00 0.00 0.00 0.00 0.00 0.00 0.00 0.00 0.00 0.00 0.00 0.00 0.01 0.01 0.00 0.00 0.00 0.00 0.00 0.00 0.00 0.00 0.00 0.00 0.00 0.01 0.00 0.02 0.00 0.03 0.01 0.00
0.00 0.00 0.00 0.00 0.00 0.00 0.00 0.00 0.00 0.00 0.00 0.00 0.00 0.00 0.00 0.00 0.00 0.00 0.00 0.00 0.00 0.00 0.00 0.00 0.00 0.00 0.00 0.00 0.01 0.00 0.00 0.00 0.00 0.00 0.00 0.03 0.00 0.00 0.01 0.02 0.02 0.02 0.01
0.00 0.00 0.00 0.00 0.00 0.00 0.00 0.00 0.00 0.00 0.00 0.00 0.00 0.00 0.00 0.00 0.00 0.00 0.00 0.00 0.00 0.00 0.00 0.00 0.00 0.00 0.00 0.00 0.01 0.00 0.00 0.00 0.00 0.00 0.00 0.00 0.00 0.00 0.00 0.00 0.00 0.01 0.03
0.00 0.00 0.00 0.00 0.00 0.00 0.01 0.01 0.00 0.00 0.00 0.00 0.00 0.00 0.00 0.00 0.00 0.00 0.00 0.00 0.00 0.00 0.00 0.00 0.00 0.00 0.00 0.00 0.00 0.02 0.01 0.00 0.00 0.00 0.00 0.00 0.00 0.00 0.00 0.00 0.00 0.00 0.01
0.00 0.00 0.00 0.00 0.00 0.00 0.00 0.02 0.00 0.00 0.00 0.00 0.00 0.00 0.00 0.00 0.00 0.00 0.00 0.00 0.00 0.00 0.00 0.00 0.00 0.00 0.00 0.00 0.00 0.00 0.00 0.00 0.01 0.00 0.02 0.02 0.00 0.00 0.00 0.00 0.00 0.00 0.00
0.00 0.00 0.00 0.00 0.00 0.00 0.00 0.00 0.00 0.00 0.00 0.00 0.00 0.00 0.00 0.00 0.00 0.00 0.00 0.00 0.00 0.00 0.00 0.00 0.00 0.00 0.00 0.00 0.00 0.00 0.00 0.00 0.00 0.00 0.00 0.01 0.02 0.03 0.03 0.00 0.00 0.00 0.00
0.00 0.00 0.00 0.00 0.00 0.00 0.00 0.00 0.00 0.00 0.00 0.00 0.00 0.00 0.00 0.00 0.00 0.00 0.00 0.00 0.01 0.00 0.00 0.00 0.00 0.00 0.00 0.00 0.00 0.00 0.00 0.00 0.00 0.00 0.00 0.00 0.00 0.03 0.03 0.00 0.02 0.02 0.01
0.00 0.00 0.00 0.00 0.00 0.00 0.00 0.00 0.00 0.00 0.00 0.00 0.00 0.00 0.00 0.00 0.02 0.00 0.02 0.03 0.03 0.12 0.12 0.03 0.02 0.00 0.00 0.00 0.01 0.03 0.01 0.01 0.00 0.00 0.00 0.01 0.01 0.00 0.00 0.04 0.11 0.09 0.03
0.00 0.00 0.00 0.00 0.00 0.00 0.00 0.00 0.00 0.00 0.00 0.00 0.00 0.00 0.00 0.00 0.02 0.04 0.09 0.07 0.21 0.21 0.08 0.02 0.03 0.05 0.05 0.03 0.06 0.12 0.02 0.01 0.00 0.00 0.00 0.01 0.01 0.01 0.00 0.00 0.00 0.00 0.02
0.00 0.00 0.00 0.00 0.00 0.00 0.00 0.00 0.00 0.00 0.00 0.00 0.00 0.00 0.00 0.00 0.03 0.07 0.07 0.16 0.11 0.08 0.10 0.11 0.09 0.05 0.01 0.02 0.04 0.07 0.00 0.00 0.00 0.00 0.00 0.00 0.00 0.00 0.00 0.01 0.00 0.04 0.07
0.00 0.00 0.00 0.00 0.01 0.03 0.06 0.05 0.01 0.00 0.00 0.00 0.00 0.00 0.00 0.00 0.01 0.02 0.05 0.04 0.01 0.01 0.03 0.09 0.06 0.03 0.00 0.01 0.01 0.00 0.00 0.00 0.00 0.00 0.01 0.01 0.00 0.00 0.01 0.01 0.00 0.00 0.00
0.00 0.00 0.00 0.00 0.01 0.15 0.23 0.17 0.10 0.04 0.00 0.00 0.00 0.00 0.01 0.02 0.01 0.01 0.01 0.00 0.00 0.00 0.00 0.00 0.00 0.00 0.00 0.00 0.00 0.00 0.00 0.00 0.00 0.00 0.01 0.02 0.03 0.02 0.03 0.01 0.00 0.00 0.00
0.00 0.00 0.01 0.01 0.01 0.08 0.30 0.37 0.23 0.11 0.10 0.04 0.00 0.00 0.00 0.00 0.00 0.00 0.00 0.00 0.00 0.00 0.00 0.00 0.00 0.00 0.00 0.00 0.00 0.00 0.00 0.00 0.00 0.00 0.00 0.00 0.03 0.05 0.04 0.04 0.00 0.00 0.00
0.00 0.00 0.00 0.01 0.03 0.02 0.12 0.29 0.29 0.24 0.25 0.15 0.04 0.00 0.00 0.01 0.00 0.00 0.00 0.00 0.00 0.00 0.00 0.00 0.00 0.00 0.00 0.00 0.00 0.00 0.00 0.00 0.00 0.00 0.00 0.01 0.04 0.04 0.04 0.04 0.03 0.01 0.00
0.03 0.03 0.00 0.00 0.00 0.01 0.02 0.13 0.23 0.22 0.20 0.11 0.03 0.00 0.00 0.01 0.01 0.01 0.00 0.00 0.00 0.00 0.00 0.00 0.00 0.00 0.00 0.00 0.00 0.00 0.00 0.00 0.00 0.00 0.00 0.00 0.00 0.00 0.00 0.00 0.00 0.00 0.00
0.04 0.02 0.01 0.00 0.00 0.00 0.04 0.16 0.21 0.15 0.14 0.05 0.01 0.00 0.00 0.00 0.00 0.00 0.00 0.00 0.00 0.00 0.00 0.00 0.00 0.00 0.00 0.00 0.00 0.00 0.00 0.00 0.00 0.00 0.00 0.00 0.00 0.00 0.00 0.00 0.00 0.00 0.00
0.05 0.04 0.01 0.00 0.00 0.04 0.07 0.17 0.18 0.10 0.09 0.02 0.01 0.00 0.00 0.00 0.00 0.00 0.00 0.00 0.00 0.00 0.00 0.00 0.00 0.00 0.00 0.00 0.00 0.00 0.00 0.00 0.00 0.00 0.00 0.00 0.00 0.00 0.00 0.00 0.00 0.00 0.00
0.02 0.05 0.02 0.02 0.03 0.04 0.11 0.24 0.29 0.12 0.06 0.03 0.02 0.00 0.00 0.00 0.00 0.00 0.00 0.00 0.00 0.00 0.00 0.00 0.00 0.00 0.00 0.00 0.00 0.00 0.00 0.00 0.00 0.00 0.00 0.00 0.00 0.00 0.00 0.00 0.00 0.00 0.00
MSLP
1009.98 1010.47 1010.96 1011.78 1012.50 1013.06 1013.49 1014.05 1014.59 1014.96 1015.51 1016.08 1016.64 1016.86 1016.88 1016.53 1016.63 1016.25 1016.22 1016.09 1016.08 1016.43 1016.41 1016.76 1016.99 1016.96 1017.58 1017.82 1017.91 1018.43 1018.63 1018.73 1018.78 1019.06 1019.62 1019.84 1019.33 1018.97 1018.89 1018.63 1018.43 1018.27 1018.39
1010.22 1010.73 1011.17 1011.80 1012.31 1012.67 1013.30 1013.91 1014.34 1014.86 1015.27 1015.66 1016.08 1016.22 1016.49 1016.44 1016.39 1016.20 1016.16 1015.94 1015.76 1016.03 1016.45 1016.97 1017.36 1017.36 1017.59 1017.86 1018.05 1018.20 1018.64 1018.74 1018.76 1019.24 1020.17 1020.35 1019.94 1019.28 1019.07 1018.88 1018.29 1018.11 1018.02
1009.89 1010.59 1011.23 1011.59 1012.18 1012.63 1013.08 1013.56 1014.03 1014.65 1015.08 1015.31 1015.84 1016.21 1016.57 1016.66 1016.92 1016.16 1016.04 1016.01 1015.92 1016.00 1016.37 1016.63 1017.09 1017.28 1017.58 1017.83 1017.79 1017.85 1018.41 1018.98 1019.14 1019.06 1019.42 1020.09 1020.01 1019.42 1019.13 1018.84 1018.24 1017.94 1017.89
1009.44 1010.05 1010.73 1011.34 1011.76 1012.23 1012.82 1013.25 1013.73 1014.43 1014.78 1015.16 1015.60 1015.86 1015.95 1016.50 1016.24 1016.08 1015.74 1015.95 1016.00 1016.04 1016.22 1016.43 1016.67 1016.82 1017.23 1017.40 1017.39 1017.54 1018.01 1018.30 1018.81 1019.13 1019.33 1019.31 1019.64 1019.40 1019.39 1018.67 1018.36 1018.43 1018.21
1008.36 1009.11 1009.96 1010.39 1011.12 1012.01 1012.42 1013.04 1013.49 1014.06 1014.44 1014.86 1015.21 1015.61 1015.76 1015.94 1015.90 1015.97 1016.14 1016.17 1015.91 1015.93 1016.09 1016.36 1016.48 1016.99 1017.17 1017.20 1017.30 1017.53 1017.51 1017.74 1018.21 1018.41 1019.06 1019.09 1019.27 1019.16 1019.31 1019.42 1018.84 1018.61 1018.26
1007.40 1008.31 1009.20 1010.00 1010.71 1011.57 1012.36 1012.99 1013.40 1013.68 1014.10 1014.53 1014.92 1015.29 1015.53 1015.91 1016.19 1016.15 1016.16 1016.04 1016.00 1015.95 1015.91 1016.14 1016.13 1016.33 1016.81 1016.99 1017.02 1017.11 1017.19 1017.43 1017.75 1017.90 1018.19 1018.58 1018.93 1019.01 1019.04 1019.40 1018.97 1018.59 1017.63
1006.63 1007.67 1008.66 1009.65 1010.34 1010.96 1011.82 1012.59 1013.25 1013.42 1013.73 1014.19 1014.55 1014.76 1015.17 1015.59 1015.90 1015.92 1016.11 1016.23 1016.11 1015.94 1015.83 1015.95 1016.11 1016.23 1016.30 1016.52 1016.61 1016.76 1016.95 1017.20 1017.39 1017.47 1017.86 1018.10 1018.27 1018.34 1018.54 1018.73 1018.48 1018.34 1017.83
1006.06 1006.71 1007.61 1008.52 1009.31 1010.12 1011.08 1011.84 1012.65 1013.14 1013.28 1013.62 1014.15 1014.51 1014.79 1015.11 1015.27 1015.43 1015.73 1015.81 1015.58 1015.40 1015.53 1015.71 1015.70 1015.86 1015.88 1016.09 1016.29 1016.67 1016.85 1016.90 1017.10 1017.15 1017.44 1017.73 1017.69 1017.73 1018.00 1018.02 1018.13 1018.13 1017.78
1005.12 1005.72 1006.62 1007.57 1008.39 1009.23 1010.11 1010.94 1011.74 1012.37 1012.65 1013.01 1013.43 1013.99 1014.43 1014.81 1014.92 1014.97 1015.23 1015.29 1015.25 1015.25 1015.28 1015.45 1015.48 1015.69 1015.70 1015.90 1016.28 1016.52 1016.78 1016.82 1016.76 1016.74 1016.82 1017.08 1017.28 1017.34 1017.23 1017.34 1017.62 1017.57 1017.84
1004.29 1004.94 1005.59 1006.49 1007.33 1008.04 1009.28 1010.40 1011.08 1011.41 1011.77 1012.31 1012.72 1013.20 1013.80 1014.31 1014.69 1014.64 1014.76 1014.81 1014.79 1014.85 1014.96 1015.17 1015.38 1015.48 1015.76 1015.99 1016.16 1016.36 1016.52 1016.54 1016.46 1016.33 1016.34 1016.65 1016.87 1016.94 1017.00 1017.09 1017.12 1016.98 1017.29
1003.42 1004.03 1004.76 1005.68 1006.43 1007.38 1008.77 1009.59 1010.61 1011.16 1011.55 1011.83 1012.14 1012.50 1013.03 1013.63 1014.13 1014.34 1014.38 1014.37 1014.42 1014.50 1014.72 1014.80 1014.94 1015.23 1015.33 1015.60 1015.96 1016.02 1016.19 1016.36 1016.47 1016.41 1016.58 1016.51 1016.48 1016.55 1016.65 1016.76 1016.82 1016.82 1016.81
1003.19 1003.86 1004.48 1005.30 1006.23 1006.97 1008.06 1008.95 1009.94 1010.57 1010.94 1011.36 1011.70 1012.04 1012.38 1012.92 1013.51 1013.75 1013.88 1014.15 1014.19 1014.10 1014.35 1014.52 1014.85 1015.00 1015.08 1015.31 1015.58 1015.70 1015.78 1016.01 1016.28 1016.42 1016.61 1016.44 1016.28 1016.33 1016.43 1016.56 1016.64 1016.65 1016.63
1003.38 1003.85 1004.56 1004.82 1005.61 1006.45 1007.38 1008.30 1008.94 1009.52 1010.19 1010.79 1011.43 1011.67 1012.00 1012.51 1012.82 1013.07 1013.34 1013.67 1013.78 1013.78 1013.91 1014.00 1014.27 1014.47 1014.65 1015.04 1015.21 1015.19 1015.47 1015.70 1015.86 1016.02 1016.18 1016.07 1016.14 1016.36 1016.34 1016.40 1016.51 1016.60 1016.45
1002.77 1003.24 1003.90 1004.35 1004.99 1005.66 1006.48 1007.29 1008.07 1008.84 1009.55 1010.20 1010.74 1011.13 1011.29 1011.77 1012.15 1012.35 1012.70 1013.01 1013.17 1013.34 1013.41 1013.52 1013.55 1013.73 1013.85 1014.17 1014.54 1014.78 1014.92 1015.09 1015.16 1015.26 1015.51 1015.55 1015.66 1015.98 1016.00 1016.18 1016.28 1016.25 1016.33
1002.92 1003.28 1003.44 1003.98 1004.57 1005.37 1005.89 1006.44 1007.44 1008.00 1008.74 1009.57 1010.27 1010.47 1010.62 1011.08 1011.57 1011.87 1012.05 1012.37 1012.60 1012.67 1012.84 1013.01 1013.16 1013.21 1013.41 1013.61 1013.86 1014.17 1014.41 1014.56 1014.68 1014.77 1014.85 1014.91 1014.99 1015.19 1015.36 1015.59 1015.68 1015.81 1015.88
1003.36 1003.45 1003.69 1004.03 1004.36 1004.92 1005.24 1005.84 1006.63 1007.38 1008.04 1008.94 1009.27 1009.90 1010.34 1010.64 1010.97 1011.32 1011.67 1011.94 1012.11 1012.26 1012.61 1012.81 1012.90 1013.08 1013.10 1013.12 1013.27 1013.57 1013.93 1014.05 1014.24 1014.42 1014.38 1014.38 1014.41 1014.56 1014.71 1014.88 1014.94 1015.10 1015.41
1005.90 1005.70 1005.42 1005.43 1004.77 1005.25 1005.16 1005.59 1006.12 1006.78 1007.35 1008.02 1008.58 1009.14 1009.78 1010.29 1010.55 1010.66 1011.17 1011.47 1011.57 1012.04 1012.39 1012.31 1012.44 1012.72 1012.72 1012.82 1012.99 1013.06 1013.36 1013.66 1013.83 1013.91 1013.87 1013.88 1013.91 1014.08 1014.21 1014.30 1014.36 1014.47 1014.56
1006.56 1006.45 1006.30 1006.06 1006.26 1005.41 1005.29 1006.00 1005.82 1006.34 1006.90 1007.45 1007.89 1008.40 1009.01 1009.55 1009.97 1010.41 1010.75 1010.90 1011.05 1011.33 1011.87 1011.98 1012.20 1012.50 1012.44 1012.59 1012.74 1012.92 1013.13 1013.28 1013.23 1013.17 1013.11 1013.17 1013.16 1013.28 1013.58 1013.87 1014.02 1013.98 1014.01
1006.88 1006.40 1006.33 1006.11 1006.17 1006.41 1006.06 1005.43 1006.57 1006.36 1006.49 1007.10 1007.45 1007.87 1008.42 1009.00 1009.40 1009.85 1010.39 1010.78 1011.00 1011.27 1011.50 1011.68 1012.00 1012.29 1012.38 1012.41 1012.57 1012.80 1012.85 1012.95 1012.85 1012.76 1012.65 1012.57 1012.62 1012.76 1013.06 1013.57 1013.79 1013.71 1013.51
1006.71 1006.16 1005.89 1005.44 1005.56 1006.23 1006.26 1005.61 1005.40 1007.04 1006.78 1006.30 1006.90 1007.34 1007.84 1008.63 1009.11 1009.56 1009.88 1010.20 1010.64 1011.00 1011.22 1011.48 1011.71 1012.04 1012.35 1012.36 1012.50 1012.74 1012.81 1012.76 1012.69 1012.53 1012.39 1012.39 1012.49 1012.57 1012.75 1013.03 1013.32 1013.59 1013.52
1007.42 1007.14 1006.84 1006.18 1005.92 1006.08 1006.24 1005.90 1004.87 1005.24 1007.41 1007.24 1006.47 1007.04 1007.38 1008.00 1008.80 1009.28 1009.67 1010.11 1010.62 1010.89 1011.21 1011.57 1011.59 1011.69 1011.94 1012.39 1012.55 1012.63 1012.75 1012.57 1012.44 1012.31 1012.36 1012.59 1012.56 1012.65 1012.84 1012.89 1013.10 1013.33 1013.54
1007.49 1007.56 1007.42 1006.61 1005.60 1004.87 1005.22 1004.93 1004.69 1003.81 1006.55 1008.03 1006.87 1006.81 1007.44 1007.75 1008.50 1009.21 1009.68 1010.11 1010.63 1010.93 1011.38 1011.72 1011.99 1012.17 1012.30 1012.39 1012.55 1012.75 1012.74 1012.62 1012.42 1012.16 1012.26 1012.67 1012.82 1012.86 1012.87 1013.17 1013.29 1013.39 1013.54
1007.08 1006.68 1006.84 1006.48 1005.21 1005.40 1004.72 1005.12 1005.37 1005.18 1007.01 1007.51 1006.57 1006.45 1007.09 1007.56 1008.19 1009.42 1009.90 1010.52 1010.94 1011.12 1011.71 1012.09 1012.21 1012.39 1012.39 1012.38 1012.48 1012.54 1012.59 1012.56 1012.52 1012.35 1012.47 1012.64 1012.98 1013.23 1013.36 1013.38 1013.45 1013.55 1013.72
1006.74 1006.48 1006.70 1006.34 1006.19 1006.85 1006.30 1005.53 1004.76 1004.92 1005.99 1006.00 1005.52 1006.13 1006.75 1007.80 1008.31 1008.89 1009.74 1010.22 1010.70 1011.29 1011.62 1012.04 1012.15 1012.14 1012.50 1012.54 1012.53 1012.62 1012.66 1012.66 1012.62 1012.50 1012.66 1012.86 1013.13 1013.32 1013.57 1013.71 1013.83 1013.90 1014.08
1006.26 1006.23 1005.96 1005.59 1005.67 1006.55 1006.54 1006.28 1005.20 1004.55 1003.72 1003.98 1004.66 1006.00 1006.66 1007.70 1008.54 1009.42 1010.02 1010.38 1010.67 1010.91 1011.24 1011.39 1011.74 1012.14 1012.47 1012.46 1012.35 1012.43 1012.48 1012.56 1012.63 1012.68 1012.90 1013.23 1013.52 1013.84 1014.03 1014.19 1014.32 1014.45 1014.44
1005.61 1005.51 1005.37 1005.28 1004.86 1005.54 1006.30 1005.15 1003.97 1003.78 1003.84 1004.06 1005.12 1005.75 1007.24 1008.21 1008.77 1009.42 1010.44 1010.75 1011.08 1011.41 1011.21 1011.04 1011.25 1012.07 1012.14 1012.41 1012.52 1012.61 1012.49 1012.54 1012.55 1012.73 1013.06 1013.42 1013.64 1013.90 1014.10 1014.27 1014.41 1014.53 1014.63
Thickness
5783 5784 5785 5778 5772 5767 5766 5763 5759 5757 5754 5749 5746 5746 5749 5754 5755 5760 5760 5763 5767 5768 5771 5769 5767 5769 5766 5767 5767 5759 5759 5758 5758 5753 5753 5753 5758 5764 5761 5761 5762 5765 5765
5778 5776 5777 5775 5774 5772 5768 5763 5761 5758 5755 5752 5749 5750 5750 5755 5756 5759 5761 5765 5769 5771 5769 5763 5763 5769 5767 5764 5765 5762 5759 5758 5760 5755 5745 5744 5753 5762 5764 5762 5767 5770 5771
5780 5777 5774 5776 5774 5772 5768 5765 5763 5759 5756 5756 5752 5749 5748 5749 5748 5759 5762 5765 5768 5771 5767 5766 5763 5768 5766 5763 5767 5767 5762 5752 5756 5759 5754 5745 5744 5756 5763 5766 5770 5773 5774
5785 5781 5779 5777 5776 5774 5772 5768 5764 5760 5758 5756 5753 5751 5750 5745 5754 5759 5765 5765 5766 5769 5768 5767 5768 5769 5767 5768 5772 5774 5768 5763 5758 5758 5760 5760 5756 5752 5752 5765 5768 5770 5773
5793 5789 5784 5784 5781 5776 5772 5768 5765 5763 5762 5759 5757 5755 5753 5754 5756 5759 5758 5761 5766 5768 5768 5767 5770 5768 5768 5770 5772 5773 5774 5772 5765 5764 5760 5761 5760 5762 5755 5753 5761 5767 5773
5803 5798 5793 5789 5782 5779 5772 5768 5765 5764 5764 5761 5758 5755 5754 5751 5750 5752 5753 5758 5764 5769 5768 5769 5773 5772 5770 5772 5774 5774 5775 5774 5770 5768 5769 5765 5759 5759 5758 5753 5761 5766 5779
5805 5800 5793 5786 5783 5780 5774 5769 5765 5764 5765 5763 5760 5758 5754 5751 5749 5753 5753 5755 5759 5765 5768 5771 5772 5773 5774 5772 5773 5776 5777 5774 5773 5773 5771 5769 5766 5767 5765 5762 5766 5767 5776
5813 5805 5798 5794 5788 5785 5778 5774 5768 5765 5768 5766 5762 5760 5758 5755 5754 5755 5755 5756 5761 5767 5771 5772 5772 5773 5776 5774 5773 5775 5776 5776 5774 5775 5773 5769 5770 5773 5772 5770 5770 5766 5771
5816 5812 5807 5800 5794 5788 5783 5778 5774 5771 5772 5770 5767 5763 5760 5757 5756 5758 5759 5762 5766 5768 5772 5773 5774 5775 5775 5773 5774 5773 5774 5776 5776 5777 5780 5775 5772 5775 5777 5778 5776 5774 5766
5821 5816 5813 5808 5803 5796 5787 5781 5777 5776 5777 5774 5772 5769 5763 5760 5759 5761 5762 5764 5769 5772 5773 5773 5772 5775 5775 5773 5773 5772 5775 5777 5778 5780 5782 5776 5775 5776 5777 5778 5779 5781 5774
5828 5823 5818 5813 5808 5802 5790 5784 5776 5773 5774 5775 5775 5773 5769 5765 5761 5760 5763 5766 5769 5771 5771 5774 5774 5773 5775 5775 5772 5774 5775 5775 5775 5776 5775 5776 5779 5776 5777 5777 5779 5779 5779
5828 5824 5821 5817 5807 5802 5795 5785 5779 5774 5775 5775 5774 5773 5772 5768 5765 5763 5764 5765 5767 5771 5772 5773 5773 5773 5774 5774 5773 5774 5775 5774 5773 5771 5770 5774 5778 5776 5775 5776 5776 5777 5778
5820 5820 5818 5819 5814 5805 5798 5789 5785 5780 5777 5774 5771 5772 5770 5767 5766 5766 5766 5767 5768 5771 5773 5774 5775 5775 5775 5772 5773 5776 5773 5772 5772 5772 5770 5773 5775 5773 5774 5774 5774 5774 5775
5820 5820 5819 5817 5813 5811 5803 5797 5791 5784 5778 5774 5772 5771 5772 5769 5768 5770 5768 5768 5769 5771 5773 5774 5776 5777 5779 5777 5775 5775 5775 5774 5774 5775 5774 5774 5775 5772 5774 5772 5771 5773 5772
5815 5815 5816 5814 5807 5805 5805 5800 5792 5789 5782 5774 5770 5771 5773 5772 5769 5769 5771 5769 5771 5772 5774 5775 5776 5778 5777 5778 5777 5776 5775 5775 5774 5774 5775 5777 5778 5777 5775 5773 5773 5774 5773
5808 5809 5812 5812 5808 5805 5807 5802 5794 5789 5785 5776 5774 5770 5768 5770 5770 5768 5767 5768 5768 5769 5770 5770 5772 5773 5776 5777 5778 5777 5773 5773 5773 5771 5773 5775 5777 5777 5777 5776 5776 5776 5771
5778 5781 5787 5795 5804 5800 5805 5800 5794 5791 5789 5782 5777 5772 5767 5764 5766 5768 5766 5765 5766 5765 5764 5768 5768 5768 5772 5774 5774 5775 5775 5772 5771 5770 5771 5772 5775 5773 5774 5775 5775 5774 5773
5770 5774 5776 5784 5785 5796 5799 5796 5798 5792 5788 5785 5783 5779 5773 5768 5766 5764 5764 5764 5764 5761 5761 5763 5764 5764 5767 5768 5769 5769 5769 5769 5770 5771 5772 5773 5774 5774 5772 5770 5768 5768 5768
5763 5769 5774 5778 5781 5782 5786 5794 5787 5788 5785 5782 5783 5781 5777 5771 5768 5764 5760 5759 5758 5759 5760 5760 5760 5760 5762 5764 5763 5763 5764 5764 5765 5767 5769 5771 5771 5771 5768 5764 5760 5760 5762
5756 5762 5771 5777 5779 5776 5775 5785 5789 5777 5780 5783 5783 5782 5778 5768 5764 5762 5761 5761 5759 5758 5759 5759 5759 5757 5756 5757 5758 5758 5758 5757 5758 5761 5763 5764 5764 5761 5760 5759 5757 5753 5753
5735 5742 5750 5763 5766 5764 5764 5769 5782 5781 5766 5766 5778 5778 5777 5772 5763 5761 5760 5757 5754 5755 5755 5754 5756 5756 5754 5752 5752 5753 5753 5754 5755 5756 5756 5754 5753 5753 5751 5750 5750 5748 5746
5722 5726 5728 5741 5755 5764 5762 5765 5772 5785 5764 5752 5760 5770 5768 5768 5761 5755 5754 5753 5751 5749 5747 5747 5747 5748 5749 5750 5748 5748 5748 5749 5750 5752 5752 5748 5746 5746 5743 5739 5737 5736 5736
5713 5721 5721 5725 5738 5738 5750 5750 5755 5751 5741 5741 5753 5765 5764 5763 5760 5749 5748 5745 5744 5744 5741 5740 5741 5742 5744 5745 5744 5744 5744 5743 5744 5747 5745 5742 5738 5734 5732 5730 5730 5730 5728
5704 5711 5708 5714 5717 5709 5725 5737 5745 5744 5730 5740 5754 5758 5760 5753 5754 5751 5747 5744 5742 5738 5738 5736 5738 5741 5739 5739 5740 5739 5738 5737 5737 5737 5735 5734 5731 5728 5725 5722 5721 5720 5717
5695 5701 5707 5711 5714 5705 5706 5709 5724 5739 5728 5745 5754 5750 5753 5747 5742 5737 5737 5736 5735 5736 5736 5737 5736 5735 5732 5733 5733 5733 5733 5731 5728 5727 5726 5723 5719 5716 5713 5711 5709 5708 5707
5686 5693 5698 5704 5713 5708 5691 5706 5724 5734 5724 5741 5739 5744 5737 5732 5732 5730 5724 5722 5722 5722 5726 5729 5730 5725 5725 5722 5721 5720 5721 5720 5719 5719 5714 5711 5709 5706 5704 5702 5700 5698 5697